Regional Weather Roundup
Issued by NWS New Orleans/Baton Rouge, LA

Home | Current Version | Previous Version | Graphics & Text | Print | Product List | Glossary On
Versions: 1 2 3 4 5 6 7 8 9 10 11 12 13 14 15 16 17 18 19 20 21 22 23 24 25 26 27 28 29 30 31 32 33 34 35 36 37 38 39 40 41 42 43 44 45 46 47 48 49 50
165
ASUS44 KLIX 220705
RWRLIX
NEW ORLEANS REGIONAL WEATHER ROUNDUP
NATIONAL WEATHER SERVICE NEW ORLEANS LA
100 AM CST SAT NOV 22 2014

NOTE: "FAIR" INDICATES FEW OR NO CLOUDS BELOW 12,000 FEET WITH NO
      SIGNIFICANT WEATHER AND/OR OBSTRUCTIONS TO VISIBILITY.
      SKY/WX - SKY CONDITION AND SIGNIFICANT WEATHER.
      TMP - AIR TEMPERATURE.     DP    - DEWPOINT TEMPERATURE.
      RH  - RELATIVE HUMIDITY.   PRES  - PRESSURE.
      HI  - HEAT INDEX.          WCI   - WIND CHILL INDEX.

*  THESE STATIONS ARE NOT NWS OR FAA STATIONS AND ARE NOT UNDER
   NWS QUALITY CONTROL.

LAZ038-040-048-061>063-065>067-069-220800-
SOUTHEAST LOUISIANA

CITY           SKY/WX    TMP DP  RH WIND       PRES   REMARKS
N.O. AUDUBON   NOT AVBL
N.O. INTL ARPT CLEAR     55  51  86 E6        30.23F
N.O. LAKEFRONT CLEAR     56  52  86 E7        30.24F
N.O. DOWNTOWN*   N/A     61  48  63 NE7       30.24F
SLIDELL        CLEAR     47  45  93 NE5       30.24F
BATON ROUGE    CLEAR     51  49  92 N3        30.24F
BOOTHVILLE     CLEAR     61  56  83 E6        30.22F
BELLE CHASSE   CLEAR     54  47  77 E8        30.23F
BOGALUSA*        N/A     45  42  89 CALM      30.28F
NEW ROADS*     PTSUNNY   54  51  89 E5        30.24F
GONZALES*        N/A     52  52 100 CALM      30.22F
HAMMOND*       CLEAR     54  48  82 E5        30.25F
HOUMA*         CLEAR     52  50  93 NE5       30.21F
PORT FOURCHON* MOSUNNY   64  59  82 E10       30.23F

$$

MSZ070-080>082-220800-
SOUTHERN MISSISSIPPI

CITY           SKY/WX    TMP DP  RH WIND       PRES   REMARKS
MCCOMB         CLEAR     51  45  79 E3        30.26F
GULFPORT       CLEAR     47  45  93 N3        30.26F
BILOXI         NOT AVBL
PASCAGOULA     CLEAR     51  46  83 E5        30.26F

$$

COASTAL OBSERVATIONS
LAKE AND NEARSHORE STATIONS

STATION/POSITION TIME  TEMP    WIND        PRES    WAVE
                       AIR SEA DIR/SP/G            HT/PER
                 (UTC) (F)     (DEG/KT/KT) (MB)    (FT/S)
PASCAGOULA       0700   57      70/ 15/ 19 1024.3
WAVELAND YACHT   0700   55      50/  8/  9 1023.7
GRAND ISLE       0700   63 61   70/  8/ 11 1023.5
SOUTHWEST PASS   0700   69 73              1022.9
NEW CANAL        0700   55 54   70/  6/  6 1024.3
SHELL BEACH      0700   58 52   60/  7/  7 1023.7

OFFSHORE STATIONS

STATION/POSITION TIME  TEMP    WIND        PRES    WAVE
                       AIR SEA DIR/SP/G            HT/PER
                 (UTC) (F)     (DEG/KT/KT) (MB)    (FT/S)
64 S DAUPHIN ISL 0603   69 72  100/ 19/ 23 1024.2    5/ 7

$$




USA.gov is the U.S. government's official web portal to all federal, state and local government web resources and services.